World > North America > United States > Kentucky

Hillview, Kentucky Regional Weather

Lat: 38.07N, Lon: 85.69W
Wx Zone: KYZ029Web Search
Hillview Weather Warning NWS WEATHER ALERT FOR THE HILLVIEW, KY AREA - Issued: 318 PM EST Tue Mar 2 2021 Hillview Weather Warning  

Helpful Tip: You can add this page to Bookmarks by pressing the Ctrl key & d key at the same time. Mac users press command & d.

Feedback
Hillview Weather Map
UTC Time: 3/2/2021, 23:38
Your Time:

Hillview, KY Regional Weather

Expires:202103030000;;380473
ASUS43 KLMK 022310
RWRKY 
KENTUCKY REGIONAL WEATHER ROUNDUP
NATIONAL WEATHER SERVICE LOUISVILLE KY
600 PM EST TUE MAR 02 2021

NOTE "FAIR" INDICATES FEW OR NO CLOUDS BELOW 12,000 FEET
WITH NO SIGNIFICANT WEATHER AND/OR OBSTRUCTIONS TO VISIBILITY.


KYZ024-025-028>034-038-045-046-053-030000-
NORTH CENTRAL KENTUCKY
  
CITY           SKY/WX    TMP DP  RH WIND       PRES   REMARKS
LOUISVILLE/SDF PTCLDY    48  11  22 N6        30.16F                  
LOUISVILLE/LOU CLEAR     48   9  20 N3        30.15F                  
FORT KNOX      CLEAR     47  13  26 N6        30.14F                  
$$


SKY/WX - Weather  TMP - Temperature  DP - Dew Point  RH - Relative Humidity
WIND - Wind Direction/Speed PRES - Barometric Pressure VSB - Visibility
WCI - Wind Chill Index E13G22 Wind - East Wind 13 mph/Gusts of 22 mph